RH
53 51 48 44 40 37 40 49 53 53 54 53 50 44 28 19 19 14 10 7 6 6 7 7 7 6 4 2 2 2 2 3 4 5 6 7 12 20 25 32 36 37 40 46 53
60 56 55 52 48 42 40 43 51 56 56 56 57 52 45 26 20 18 12 8 7 7 7 7 7 6 4 3 2 3 4 4 6 7 9 14 18 23 27 40 44 47 48 53 48
59 54 57 60 61 57 51 46 46 52 59 62 60 57 52 37 23 16 13 8 9 8 8 7 7 5 4 3 3 4 5 4 9 8 12 15 20 27 35 46 50 51 52 58 48
66 69 63 53 56 64 63 57 52 54 58 63 64 62 55 46 23 15 14 14 11 8 8 8 7 5 4 3 3 6 6 7 10 7 16 19 23 40 49 51 59 66 72 68 49
75 76 74 70 68 66 65 65 65 62 67 68 69 68 61 53 31 18 20 15 9 8 8 8 7 6 4 4 4 7 7 8 9 11 19 26 33 51 53 59 68 78 77 50 37
80 80 70 72 66 58 62 73 79 76 77 79 76 74 68 53 35 27 21 11 10 16 15 9 7 6 5 4 4 8 8 11 8 13 22 29 35 54 60 70 76 84 54 37 37
78 76 71 69 65 64 65 69 79 88 87 83 78 80 77 46 38 27 14 15 23 29 27 12 8 7 5 4 6 9 8 10 7 14 28 30 39 56 71 72 77 65 48 32 40
78 77 77 74 67 73 74 75 80 88 86 85 79 77 86 79 67 22 27 41 51 66 57 35 14 8 6 4 5 12 7 8 11 17 26 38 33 60 67 74 81 62 52 30 42
83 85 86 83 73 73 73 80 82 81 83 86 86 95 92 85 80 87 74 100 99 95 89 69 28 10 8 4 4 9 6 8 10 15 25 36 34 64 72 91 75 57 47 28 41
78 87 87 86 87 82 82 84 85 82 86 84 87 86 87 92 98 90 100 100 100 99 98 54 12 10 8 4 4 5 9 10 12 18 26 37 42 67 80 96 70 56 40 26 46
70 89 97 89 88 84 86 88 91 95 91 87 89 91 94 99 98 95 99 99 100 98 70 15 13 12 7 4 4 5 9 13 18 22 29 41 55 78 91 100 72 58 30 26 65
82 83 100 100 86 84 89 100 98 98 84 84 98 99 100 100 99 99 100 98 75 84 18 16 11 11 5 4 4 7 9 14 17 31 41 55 56 85 100 98 68 45 17 35 77
94 76 78 100 91 94 88 93 100 87 84 86 93 98 93 98 97 90 48 58 77 20 13 14 11 8 6 5 4 7 9 13 21 44 49 70 71 68 84 87 63 17 24 43 84
97 94 81 97 98 97 81 98 100 90 89 98 92 75 53 30 43 24 60 35 20 10 12 12 14 11 8 5 5 7 9 15 51 56 60 79 93 69 69 60 14 9 28 49 91
97 67 87 100 100 99 99 99 100 92 98 71 70 61 43 35 84 36 15 14 10 11 10 14 16 12 10 7 6 9 9 43 69 69 80 92 90 69 64 12 9 16 34 53 96
98 98 100 99 99 99 95 100 99 98 92 76 71 76 73 81 95 81 63 14 10 10 10 10 11 13 9 7 7 8 13 73 82 91 97 82 77 60 48 43 13 20 34 53 92
100 99 99 99 99 99 95 97 100 100 72 78 80 86 99 98 97 96 73 14 13 13 14 16 17 18 10 8 8 8 17 45 48 57 60 60 83 42 27 20 25 21 34 53 94
98 92 84 98 99 99 98 100 99 92 79 78 86 89 100 100 93 60 84 95 34 11 8 8 16 18 13 10 7 8 11 22 16 54 58 49 77 24 16 17 19 18 35 50 85
9 78 100 99 100 93 99 100 97 98 91 88 96 100 99 98 95 97 90 22 40 60 25 10 14 15 16 13 8 8 10 23 47 80 73 37 38 24 10 10 8 10 31 44 75
14 8 24 75 71 77 98 99 100 98 97 97 99 99 99 96 95 97 96 84 27 15 20 9 10 15 17 14 14 7 10 20 41 32 28 32 28 24 8 8 8 5 30 39 73
16 12 19 24 53 74 99 100 80 84 98 99 99 99 100 100 97 97 97 71 89 11 40 12 7 20 17 16 19 9 8 15 29 44 55 68 26 17 10 12 9 7 36 41 72
78 78 29 34 73 99 100 100 96 96 100 98 99 99 99 99 99 98 82 94 19 55 9 12 8 7 11 19 24 15 9 10 8 23 59 77 28 9 10 12 9 16 36 43 70
89 97 81 86 97 100 99 99 99 99 98 99 97 99 99 98 98 97 84 81 93 36 30 17 10 9 23 28 19 16 10 10 11 13 25 57 13 10 11 13 8 15 36 36 62
69 99 98 97 99 80 76 98 99 75 98 92 84 98 99 99 98 97 90 59 75 95 77 11 9 7 19 7 7 8 8 10 11 12 16 15 8 9 11 11 8 18 37 37 53
79 99 98 98 98 97 94 90 72 88 72 86 98 98 99 99 98 97 97 76 77 88 63 19 10 9 8 8 8 9 8 10 10 10 15 7 9 9 9 10 8 16 35 38 43
55 100 100 88 97 99 99 94 91 83 100 98 97 99 99 98 98 96 96 60 56 16 11 13 18 13 11 9 9 8 10 10 8 9 8 8 7 9 9 9 8 11 33 35 40
52 73 90 98 99 98 92 96 96 99 96 97 98 99 99 98 98 97 95 89 47 28 13 19 17 10 10 10 9 12 6 5 5 6 6 7 8 7 9 9 8 8 28 33 36
Wind_Speed
15 16 17 18 18 17 18 18 19 19 18 18 17 17 17 16 16 16 17 15 15 13 15 14 15 14 12 12 12 11 6 8 7 7 9 11 14 15 19 21 23 24 25 33 37
16 16 16 16 17 18 18 19 19 20 20 19 18 19 19 19 18 18 15 13 15 15 14 15 14 13 12 13 12 9 8 7 8 8 10 11 13 18 20 22 24 26 26 33 39
17 17 17 18 18 19 19 20 21 21 20 21 20 20 21 21 19 18 14 13 15 15 15 15 15 14 12 12 12 10 8 9 9 10 10 12 14 17 19 22 26 30 33 35 40
19 18 18 19 20 20 19 19 20 21 22 21 20 19 20 19 15 11 15 17 16 13 14 15 15 14 14 12 13 10 10 10 10 14 13 13 16 17 20 23 26 31 36 41 45
19 20 19 17 19 21 22 23 21 20 20 21 22 20 20 19 17 17 17 15 15 13 14 15 15 15 12 14 13 10 11 11 12 14 14 15 17 18 20 21 26 30 34 39 45
19 18 19 17 17 20 22 23 24 26 23 21 20 21 20 20 17 15 15 12 12 14 15 15 13 15 15 14 14 12 11 11 14 13 15 15 17 18 21 22 24 29 34 41 45
16 14 16 19 19 21 22 22 22 23 25 27 26 22 18 17 16 15 10 11 13 13 14 16 16 16 15 15 11 15 12 11 15 14 14 15 17 14 16 21 26 28 35 41 44
15 16 18 20 21 23 23 24 25 23 23 25 25 27 21 20 18 12 11 13 13 15 16 15 19 17 14 14 14 11 10 10 10 12 14 16 16 13 19 24 24 30 37 44 45
17 19 20 20 22 22 20 21 21 21 21 24 24 23 27 24 20 23 22 23 22 19 17 15 17 17 15 13 13 7 10 12 11 15 12 14 16 15 24 21 26 34 40 45 48
22 23 24 26 22 21 21 22 23 23 22 22 19 15 15 21 24 24 29 26 27 34 20 12 16 14 13 10 7 9 14 13 14 14 14 16 18 22 21 22 28 35 43 46 48
23 25 27 25 23 21 21 24 24 26 25 22 22 24 25 27 31 34 35 30 33 20 7 14 16 15 12 10 12 12 15 16 16 13 13 10 17 19 21 20 29 38 46 47 48
25 24 24 29 24 20 22 20 23 27 33 26 21 22 25 27 30 30 26 21 10 11 13 15 16 14 11 11 12 13 15 13 13 10 14 12 17 21 19 17 29 41 45 46 50
27 23 31 27 22 19 22 20 20 24 30 24 14 13 12 13 13 11 9 9 6 11 13 14 12 10 11 12 13 15 11 18 18 13 12 16 15 8 11 15 28 37 35 40 46
28 31 31 32 22 18 17 20 21 21 21 9 10 7 9 8 7 10 3 7 11 9 9 9 12 11 11 12 13 14 13 21 13 6 4 8 7 10 9 18 32 32 37 43 45
37 34 28 29 26 23 11 17 14 19 6 7 7 9 9 9 13 5 5 7 10 11 9 8 9 10 10 11 13 7 20 12 6 4 8 5 5 5 17 33 39 38 40 42 44
28 27 28 21 18 18 9 16 15 4 6 5 9 10 13 15 16 8 11 10 9 10 11 12 11 9 8 11 10 11 15 7 3 3 2 3 4 4 23 34 39 36 37 40 42
22 14 15 23 13 7 15 17 11 6 7 5 8 15 23 19 18 14 15 8 9 6 7 7 10 10 8 9 7 9 9 3 3 2 5 3 4 7 21 30 36 36 37 39 42
25 24 29 23 11 9 18 17 10 7 10 16 19 21 22 19 14 11 13 16 10 11 9 5 5 7 4 6 6 5 7 3 4 2 5 3 3 6 24 30 31 29 34 37 39
25 23 22 15 15 22 20 19 8 8 10 14 25 16 8 7 8 10 9 10 8 9 5 4 4 6 5 4 9 6 6 5 2 3 3 3 5 2 28 28 30 30 30 34 38
24 26 29 35 32 27 21 24 18 13 16 23 24 10 9 14 12 8 5 4 6 9 8 5 5 7 5 5 4 6 7 3 3 3 5 4 5 8 30 31 33 31 32 33 36
22 23 24 26 20 17 25 26 26 25 19 18 15 17 18 16 13 12 7 5 6 5 9 9 6 4 5 3 2 4 4 3 3 2 3 2 1 15 29 31 33 29 30 32 34
16 19 18 20 16 17 26 24 23 27 17 24 26 21 20 21 17 11 10 8 3 8 4 6 4 5 4 5 4 3 3 3 1 2 4 3 5 23 26 26 29 24 26 28 31
15 19 17 17 18 21 23 23 22 21 21 19 20 27 21 17 8 9 10 12 14 5 5 4 4 4 2 3 5 5 5 5 3 4 6 2 6 23 23 22 24 21 23 24 27
14 13 18 21 25 24 23 25 25 29 33 31 26 28 23 19 19 9 8 9 11 14 9 8 7 7 4 5 6 6 8 7 5 3 6 10 18 15 18 20 21 17 20 23 26
20 18 19 16 22 24 16 19 24 31 31 24 26 24 19 16 16 18 18 10 13 14 14 9 8 8 10 10 11 12 10 9 9 11 8 13 18 15 17 18 21 18 19 20 20
22 24 28 25 25 21 23 26 25 23 21 27 28 24 19 17 16 13 7 11 10 9 12 10 6 7 10 10 11 10 12 12 11 12 11 11 14 14 14 15 19 17 16 18 18
21 26 27 26 24 18 22 25 28 23 25 25 26 29 25 19 15 14 10 16 11 8 8 10 8 6 4 6 12 14 6 6 7 7 8 10 11 11 11 13 16 15 14 16 17
Wind_Direction
315 313 315 314 311 310 310 310 312 311 314 317 319 317 314 306 296 293 289 291 293 297 299 300 301 299 303 299 293 291 270 285 291 291 294 291 287 285 288 289 292 298 303 305 308
315 310 313 313 313 312 310 308 308 308 308 309 313 314 313 309 301 295 286 285 290 299 302 303 305 304 307 300 296 292 296 301 299 300 301 299 294 294 295 297 300 302 304 306 311
320 315 313 309 310 311 309 310 307 305 304 306 307 309 311 309 303 294 278 283 292 303 307 309 308 309 308 301 300 297 300 309 302 311 305 307 300 298 299 302 305 309 314 315 317
325 324 319 311 307 302 302 305 308 308 304 302 301 304 305 307 303 293 289 294 297 305 310 314 313 312 311 301 302 298 304 308 305 315 310 311 306 304 302 305 309 315 318 321 322
311 316 315 321 325 310 298 294 296 300 303 300 300 299 301 302 293 289 290 292 297 306 309 312 313 312 308 300 299 290 300 302 307 313 309 306 305 297 302 303 310 313 319 321 322
308 310 319 319 321 321 311 300 292 286 288 294 300 296 303 304 294 289 289 291 301 312 313 307 315 311 303 300 293 288 297 298 309 303 300 301 296 294 302 304 308 316 322 324 325
298 307 316 317 319 326 321 309 303 298 293 286 284 291 292 297 294 290 281 292 300 311 319 321 318 305 301 303 289 291 295 289 304 307 295 303 299 298 295 302 311 320 326 327 328
292 296 305 312 317 322 323 317 313 307 301 291 292 278 279 295 297 278 276 282 295 308 310 320 312 301 296 301 297 283 291 292 295 303 306 307 304 294 295 304 310 322 324 329 333
280 290 305 305 310 313 320 326 319 321 310 302 294 289 277 281 279 269 270 287 285 287 297 294 292 292 289 305 302 281 284 298 305 310 297 298 298 290 301 303 322 329 328 334 333
281 286 291 297 301 303 314 317 322 314 322 318 300 290 273 282 273 263 279 282 285 292 289 293 286 285 285 300 292 289 298 294 306 308 291 293 299 291 294 303 328 328 333 336 335
282 295 284 303 290 299 311 308 316 325 323 316 292 283 281 285 282 283 288 287 286 287 273 280 281 274 283 289 297 300 302 297 316 300 302 296 298 293 296 294 324 326 336 335 339
278 285 279 290 283 294 302 313 317 313 318 312 302 291 287 284 285 286 291 295 291 281 273 272 276 271 278 292 306 314 306 309 323 290 305 296 299 291 288 304 327 334 335 340 342
280 272 273 279 272 284 301 307 316 320 322 316 325 324 302 291 308 326 335 304 290 272 267 264 271 273 281 292 312 319 296 311 310 298 291 302 298 287 286 305 322 329 337 345 346
269 272 273 270 268 278 297 299 308 327 319 303 326 334 338 328 351 334 18 300 292 293 275 273 263 267 285 298 316 321 310 316 304 290 316 316 300 294 304 326 328 343 350 351 349
272 280 271 256 253 268 284 298 305 325 317 308 326 332 328 311 302 298 276 278 284 281 276 278 280 275 287 302 313 304 321 311 282 264 302 268 276 272 334 343 349 352 352 354 354
275 257 266 251 251 282 289 301 314 299 256 288 313 319 325 306 307 266 291 294 293 284 280 271 273 278 277 309 309 315 322 293 272 277 316 232 317 296 349 348 346 351 353 356 358
262 271 278 246 271 306 303 297 285 209 279 284 318 311 317 311 307 279 248 272 275 295 297 290 272 270 283 315 312 335 322 323 344 15 227 322 301 320 352 350 345 347 352 360 2
274 290 287 255 264 282 293 289 238 255 271 296 311 314 311 304 296 279 294 239 257 259 270 284 269 254 279 332 330 338 11 78 247 288 284 280 262 346 355 352 346 351 355 1 8
267 247 255 263 273 277 285 265 252 277 286 299 310 315 309 315 304 297 262 252 250 249 236 261 252 246 278 319 3 348 3 358 271 314 308 287 291 340 353 345 353 358 1 6 13
271 265 251 256 267 274 261 256 258 242 282 289 298 281 285 304 298 308 290 245 248 237 231 274 273 262 264 288 336 16 8 17 350 30 314 312 292 333 349 346 357 1 5 8 13
274 269 263 263 270 262 253 256 268 270 280 272 278 296 293 290 285 286 258 260 216 238 216 257 250 259 260 265 312 356 16 3 40 50 166 302 300 359 349 346 354 3 5 7 9
270 287 274 262 253 250 260 267 271 253 274 293 286 291 276 285 282 272 243 237 228 225 270 261 274 257 260 265 279 305 315 346 42 281 255 247 294 349 346 343 353 5 8 9 9
259 286 278 279 253 250 266 280 278 250 268 286 285 289 280 280 263 261 253 244 222 222 225 244 253 273 282 275 272 274 286 295 318 294 234 179 323 341 341 346 352 7 9 11 11
257 267 281 282 278 272 262 264 269 272 272 291 288 281 273 268 269 260 251 239 240 226 236 264 261 253 246 293 291 284 291 282 275 256 279 265 320 341 339 346 358 8 14 12 9
240 255 262 270 285 288 276 262 263 262 274 282 287 272 268 264 269 263 256 235 236 237 238 239 273 273 271 274 282 286 282 284 279 277 263 311 322 341 343 351 359 10 19 12 10
248 245 260 265 287 285 272 271 278 270 280 286 289 275 282 266 263 275 276 209 218 225 221 235 265 293 296 286 286 279 271 271 280 283 292 308 331 344 348 354 358 11 15 17 14
258 244 252 261 275 284 298 287 285 283 283 284 284 269 272 261 263 259 259 202 215 233 230 228 253 286 275 304 305 293 232 233 280 296 300 316 333 348 358 359 0 11 13 24 17